Storm Lake, IA

3:26 PM CDT on September 20, 2017 (GMT -0500)
Storm Lake Municipal

Weather History for KSLB - November, 2012

Change the Weather History Date:

Tuesday, November 6, 2012

  Actual Average Record
Temperature  
Mean Temperature 44 °F -  
Max Temperature 50 °F 48 °F 75 °F (2001)
Min Temperature 39 °F 31 °F 14 °F (2003)
Degree Days  
Heating Degree Days 20    
Moisture  
Dew Point 36 °F    
Average Humidity 78    
Maximum Humidity 100    
Minimum Humidity 58    
Precipitation  
Precipitation 0.00 in - - ()
Sea Level Pressure  
Sea Level Pressure 29.93 in    
Wind  
Wind Speed 18 mph (WNW)    
Max Wind Speed 30 mph    
Max Gust Speed 40 mph    
Visibility 8 miles    
Events      
Averages and records for this station are not official NWS values.
T = Trace of Precipitation, MM = Missing Value Source: NWS Daily Summary

Daily Weather History Graph

Daily Weather History Graph

Search for Another Location

Airport or City:

Trip Planner

Search our weather history database for the weather conditions in past years. The results will help you decide how hot, cold, wet, or windy it might be!

Date:

Astronomy

Nov. 06, 2012 Rise Set
Actual Time 7:01 AM CST 5:07 PM CST
Civil Twilight 6:31 AM CST 5:36 PM CST
Nautical Twilight 5:58 AM CST 6:10 PM CST
Astronomical Twilight 5:25 AM CST 6:43 PM CST
Moon 11:48 PM CST (11/6) 12:53 PM CST (11/6)
Length of Visible Light 11h 04m
Length of Day
10h 05m
Waning Gibbous, 53% of the Moon is Illuminated
Nov 6
Waning Gibbous
Nov 6
Last Quarter
Nov 13
New
Nov 20
First Quarter
Nov 28
Full

Hourly Weather History & Observations

Time (CST) Temp. Windchill Dew Point Humidity Pressure Visibility Wind Dir Wind Speed Gust Speed Precip Events Conditions
12:15 AM 39.2 °F 30.8 °F 39.2 °F 100% 29.97 in 4.0 mi SSW 15.0 mph - N/A   Overcast
12:35 AM 39.2 °F 30.5 °F 39.2 °F 100% 29.97 in 5.0 mi SSW 16.1 mph - N/A   Overcast
12:55 AM 39.2 °F 30.5 °F 39.2 °F 100% 29.95 in 5.0 mi SSW 16.1 mph - N/A   Overcast
1:15 AM 39.2 °F 30.2 °F 39.2 °F 100% 29.96 in 5.0 mi SSW 17.3 mph - N/A   Overcast
1:35 AM 39.2 °F 30.2 °F 37.4 °F 93% 29.94 in - SSW 17.3 mph - N/A   Overcast
1:55 AM 39.2 °F 29.0 °F 37.4 °F 93% 29.92 in 4.0 mi SSW 21.9 mph - N/A   Overcast
2:15 AM 39.2 °F 29.8 °F 37.4 °F 93% 29.90 in 4.0 mi SSW 18.4 mph - N/A   Overcast
2:35 AM 39.2 °F 30.2 °F 39.2 °F 100% 29.90 in 3.0 mi SSW 17.3 mph 25.3 mph N/A   Overcast
2:55 AM 39.2 °F 30.5 °F 39.2 °F 100% 29.91 in 3.0 mi SSW 16.1 mph - N/A   Overcast
3:15 AM 39.2 °F 30.2 °F 39.2 °F 100% 29.89 in 3.0 mi SSW 17.3 mph - N/A   Overcast
3:35 AM 39.2 °F 29.8 °F 39.2 °F 100% 29.86 in 3.0 mi SSW 18.4 mph 25.3 mph N/A   Overcast
3:55 AM 39.2 °F 29.3 °F 39.2 °F 100% 29.87 in 3.0 mi SW 20.7 mph 28.8 mph N/A   Overcast
4:15 AM 39.2 °F 29.3 °F 37.4 °F 93% 29.86 in 4.0 mi SW 20.7 mph 27.6 mph N/A   Overcast
4:35 AM 39.2 °F 29.3 °F 37.4 °F 93% 29.84 in 4.0 mi SW 20.7 mph 31.1 mph N/A   Overcast
4:55 AM 39.2 °F 28.7 °F 37.4 °F 93% 29.85 in 5.0 mi WSW 23.0 mph - N/A   Overcast
5:15 AM 39.2 °F 29.8 °F 37.4 °F 93% 29.85 in 6.0 mi WSW 18.4 mph 27.6 mph N/A   Overcast
5:35 AM 39.2 °F 29.8 °F 37.4 °F 93% 29.85 in 6.0 mi WSW 18.4 mph 26.5 mph N/A   Overcast
5:55 AM 39.2 °F 30.2 °F 37.4 °F 93% 29.85 in 6.0 mi West 17.3 mph - N/A   Overcast
6:15 AM 39.2 °F 29.8 °F 37.4 °F 93% 29.86 in 7.0 mi West 18.4 mph - N/A   Overcast
6:35 AM 39.2 °F 31.6 °F 37.4 °F 93% 29.86 in 7.0 mi West 12.7 mph 20.7 mph N/A   Overcast
6:55 AM 39.2 °F 30.5 °F 37.4 °F 93% 29.87 in 8.0 mi WNW 16.1 mph - N/A   Overcast
7:15 AM 39.2 °F 29.8 °F 37.4 °F 93% 29.89 in 7.0 mi WNW 18.4 mph - N/A   Overcast
7:35 AM 39.2 °F 30.5 °F 37.4 °F 93% 29.90 in 8.0 mi WNW 16.1 mph - N/A   Overcast
7:55 AM 39.2 °F 30.8 °F 37.4 °F 93% 29.92 in 9.0 mi NW 15.0 mph - N/A   Scattered Clouds
8:15 AM 39.2 °F 29.6 °F 37.4 °F 93% 29.92 in 10.0 mi NW 19.6 mph - N/A   Clear
8:35 AM 41.0 °F 31.6 °F 37.4 °F 87% 29.92 in 10.0 mi NW 20.7 mph 26.5 mph N/A   Clear
8:55 AM 41.0 °F 31.9 °F 37.4 °F 87% 29.92 in 10.0 mi NW 19.6 mph 27.6 mph N/A   Clear
9:15 AM 42.8 °F 33.5 °F 37.4 °F 81% 29.92 in 10.0 mi NW 23.0 mph 31.1 mph N/A   Clear
9:35 AM 42.8 °F 33.3 °F 37.4 °F 81% 29.93 in 10.0 mi NW 24.2 mph 29.9 mph N/A   Clear
9:55 AM 42.8 °F 33.5 °F 35.6 °F 76% 29.93 in 10.0 mi NW 23.0 mph 29.9 mph N/A   Clear
10:15 AM 44.6 °F 35.9 °F 35.6 °F 71% 29.93 in 10.0 mi NW 23.0 mph 33.4 mph N/A   Clear
10:35 AM 44.6 °F 36.6 °F 35.6 °F 71% 29.94 in 10.0 mi NW 19.6 mph 29.9 mph N/A   Mostly Cloudy
10:55 AM 44.6 °F 36.1 °F 37.4 °F 76% 29.94 in 10.0 mi NW 21.9 mph - N/A   Mostly Cloudy
11:15 AM 46.4 °F 38.5 °F 37.4 °F 71% 29.93 in 10.0 mi NW 21.9 mph 27.6 mph N/A   Overcast
11:35 AM 46.4 °F 38.5 °F 35.6 °F 66% 29.93 in 10.0 mi NW 21.9 mph 28.8 mph N/A   Mostly Cloudy
11:55 AM 48.2 °F - 35.6 °F 62% 29.92 in 10.0 mi NW 20.7 mph 29.9 mph N/A   Clear
12:15 PM 48.2 °F - 35.6 °F 62% 29.91 in 10.0 mi NW 20.7 mph 29.9 mph N/A   Partly Cloudy
12:35 PM 50.0 °F - 37.4 °F 62% 29.91 in 10.0 mi NW 23.0 mph 31.1 mph N/A   Partly Cloudy
12:55 PM 50.0 °F - 35.6 °F 58% 29.91 in 10.0 mi NW 20.7 mph 32.2 mph N/A   Scattered Clouds
1:15 PM 50.0 °F - 35.6 °F 58% 29.90 in 10.0 mi NW 26.5 mph 35.7 mph N/A   Mostly Cloudy
1:35 PM 48.2 °F - 35.6 °F 62% 29.91 in 10.0 mi NW 24.2 mph 35.7 mph N/A   Mostly Cloudy
1:55 PM 48.2 °F - 35.6 °F 62% 29.91 in 10.0 mi NW 20.7 mph 36.8 mph N/A   Overcast
2:15 PM 50.0 °F - 35.6 °F 58% 29.91 in 10.0 mi NW 29.9 mph 40.3 mph N/A   Overcast
2:35 PM 48.2 °F - 35.6 °F 62% 29.92 in 10.0 mi NW 26.5 mph 38.0 mph N/A   Overcast
2:55 PM 48.2 °F - 35.6 °F 62% 29.92 in 10.0 mi NW 29.9 mph 35.7 mph N/A   Overcast
3:15 PM 48.2 °F - 35.6 °F 62% 29.93 in 10.0 mi NW 23.0 mph 32.2 mph N/A   Overcast
3:35 PM 48.2 °F - 35.6 °F 62% 29.93 in 10.0 mi NW 24.2 mph 33.4 mph N/A   Overcast
3:55 PM 46.4 °F 39.2 °F 35.6 °F 66% 29.94 in 10.0 mi NNW 18.4 mph 32.2 mph N/A   Overcast
4:15 PM 46.4 °F 38.5 °F 35.6 °F 66% 29.94 in 10.0 mi NW 21.9 mph - N/A   Overcast
4:35 PM 46.4 °F 38.5 °F 35.6 °F 66% 29.95 in 10.0 mi NW 21.9 mph 33.4 mph N/A   Overcast
4:55 PM 46.4 °F 39.2 °F 33.8 °F 62% 29.96 in 10.0 mi NW 18.4 mph 28.8 mph N/A   Overcast
5:15 PM 46.4 °F 38.3 °F 33.8 °F 62% 29.96 in 10.0 mi NNW 23.0 mph - N/A   Overcast
5:35 PM 46.4 °F 39.5 °F 33.8 °F 62% 29.97 in 10.0 mi NNW 17.3 mph 25.3 mph N/A   Overcast
5:55 PM 46.4 °F 39.5 °F 35.6 °F 66% 29.98 in 10.0 mi NNW 17.3 mph 23.0 mph N/A   Overcast
6:15 PM 44.6 °F 37.8 °F 35.6 °F 71% 29.99 in 10.0 mi NW 15.0 mph 21.9 mph N/A   Overcast
6:35 PM 44.6 °F 37.4 °F 35.6 °F 71% 29.99 in 10.0 mi NW 16.1 mph - N/A   Overcast
6:55 PM 44.6 °F 36.9 °F 33.8 °F 66% 29.99 in 10.0 mi NNW 18.4 mph 25.3 mph N/A   Overcast
7:15 PM 44.6 °F 37.8 °F 33.8 °F 66% 30.00 in 10.0 mi NW 15.0 mph 24.2 mph N/A   Overcast
7:35 PM 44.6 °F 36.6 °F 33.8 °F 66% 29.99 in 10.0 mi NW 19.6 mph 27.6 mph N/A   Overcast
7:55 PM 44.6 °F 36.9 °F 33.8 °F 66% 29.99 in 10.0 mi NNW 18.4 mph 26.5 mph N/A   Overcast
8:15 PM 44.6 °F 36.6 °F 33.8 °F 66% 29.99 in 10.0 mi NNW 19.6 mph - N/A   Overcast
8:35 PM 44.6 °F 37.8 °F 33.8 °F 66% 29.99 in 10.0 mi NNW 15.0 mph - N/A   Overcast
8:55 PM 44.6 °F 39.7 °F 33.8 °F 66% 29.99 in 10.0 mi NW 9.2 mph - N/A   Overcast
9:15 PM 42.8 °F 37.5 °F 35.6 °F 76% 30.00 in 10.0 mi NW 9.2 mph - N/A   Overcast
9:35 PM 42.8 °F 36.2 °F 35.6 °F 76% 30.00 in 10.0 mi WNW 12.7 mph - N/A   Overcast
9:55 PM 42.8 °F 37.0 °F 35.6 °F 76% 30.00 in 10.0 mi NW 10.4 mph - N/A   Overcast
10:15 PM 42.8 °F 36.2 °F 35.6 °F 76% 30.00 in 10.0 mi NW 12.7 mph - N/A   Overcast
10:35 PM 42.8 °F 35.1 °F 35.6 °F 76% 30.00 in 10.0 mi NW 16.1 mph - N/A   Overcast
10:55 PM 42.8 °F 35.4 °F 35.6 °F 76% 30.00 in 10.0 mi NNW 15.0 mph 21.9 mph N/A   Overcast
11:15 PM 42.8 °F 35.8 °F 35.6 °F 76% 30.01 in 10.0 mi NNW 13.8 mph - N/A   Overcast
11:35 PM 41.0 °F 34.7 °F 35.6 °F 81% 30.02 in 10.0 mi NNW 10.4 mph - N/A   Overcast
11:55 PM 42.8 °F 35.8 °F 33.8 °F 70% 30.02 in 10.0 mi North 13.8 mph 20.7 mph N/A   Overcast